Location: Trebic
(49.2170°N, 15.8830°E)
Time: 05:10:41
(UTC+02:00)

Transit 4A - Pass Details

Date: 25 July 2019
Orbit: 863 x 981 km, 66.8° (Epoch: 24 August)

Event Time Altitude Azimuth Distance (km) Brightness Sun altitude
Exits shadow 02:05:11 33° 213° (SSW) 1,595 8.6 -19.7°
Maximum altitude 02:08:20 89° 128° (SE) 987 8.0 -19.5°
Drops below altitude 10° 02:14:48 10° 36° (NE) 2,739 11.4 -19.2°
Sets 02:17:22 0° 37° (NE) 3,685 12.4 -19.1°
